This demonstration page uses our WeatherBlox Daily Observations layout. Learn more.

Left ArrowRight Arrow

40.92501, -98.34201

Hourly Observations for August 29, 2022

Temp ( °F °C ) Dew Point ( °F °C ) Humidity (%) Winds ( mph kmh ) Pressure ( in mb ) Visibility ( mi km ) Precip ( " mm )
12:53 am 00:53 Clear 71 21.7 64 17.8 79 79 NE 7 11 29.75 1008 10 16 0.00 0.00
1:53 am 01:53 Clear 70 21.1 64 17.8 81 81 ENE 6 9 29.77 1008 10 16 0.00 0.00
2:53 am 02:53 Clear with Light Rain 70 21.1 64 17.8 81 81 ENE 8 13 29.78 1008 10 16 0.01 0.13
3:53 am 03:53 Partly Cloudy 70 21.1 63 17.2 78 78 NE 7 11 29.79 1009 10 16 0.01 0.13
4:53 am 04:53 Clear 67 19.4 63 17.2 87 87 N 8 13 29.82 1010 10 16 0.00 0.00
5:53 am 05:53 Clear 68 20 61 16.1 78 78 N 3 6 29.85 1011 10 16 0.00 0.00
6:53 am 06:53 Clear 67 19.4 61 16.1 81 81 NE 3 6 29.85 1011 10 16 0.00 0.00
7:53 am 07:53 Sunny 67 19.4 61 16.1 81 81 NNE 3 6 29.89 1012 10 16 0.00 0.00
8:53 am 08:53 Sunny 72 22.2 60 15.6 66 66 N 8 13 29.94 1014 10 16 0.00 0.00
9:53 am 09:53 Sunny 77 25 59 15 54 54 NE 10 17 29.96 1014 10 16 0.00 0.00
10:53 am 10:53 Sunny 75 23.9 57 13.9 54 54 NNE 12 19 29.98 1015 10 16 0.00 0.00
11:53 am 11:53 Sunny 81 27.2 55 12.8 41 41 NE 12 19 29.99 1016 10 16 0.00 0.00
12:53 pm 12:53 Sunny 84 28.9 54 12.2 36 36 ENE 14 22 29.99 1016 10 16 0.00 0.00
1:53 pm 13:53 Sunny 85 29.4 52 11.1 32 32 NNE 14 22 29.98 1015 10 16 0.00 0.00
2:53 pm 14:53 Sunny 86 30 51 10.6 30 30 NE 14 22 29.99 1016 10 16 0.00 0.00
3:53 pm 15:53 Sunny 88 31.1 53 11.7 30 30 ENE 10 17 29.97 1015 10 16 0.00 0.00
4:53 pm 16:53 Sunny 87 30.6 52 11.1 30 30 E 10 17 29.97 1015 10 16 0.00 0.00
5:53 pm 17:53 Sunny 87 30.6 52 11.1 30 30 ESE 8 13 29.97 1015 10 16 0.00 0.00
6:53 pm 18:53 Sunny 84 28.9 57 13.9 40 40 SE 7 11 29.97 1015 10 16 0.00 0.00
7:53 pm 19:53 Sunny 77 25 59 15 54 54 SSE 6 9 29.98 1015 10 16 0.00 0.00
8:53 pm 20:53 Clear 73 22.8 60 15.6 64 64 SSE 3 6 30.01 1016 10 16 0.00 0.00
9:53 pm 21:53 Clear 71 21.7 60 15.6 68 68 Calm 30.04 1017 10 16 0.00 0.00
10:53 pm 22:53 Clear 68 20 60 15.6 76 76 Calm 30.06 1018 10 16 0.00 0.00
11:53 pm 23:53 Clear 66 18.9 59 15 78 78 W 3 6 30.07 1018 10 16 0.00 0.00

Powered by AerisWeather